Astrid

operational
NORAD ID: 23464 Int'l Des: 1995-002 Owner: SSC Country: S
LEOCIRCULARPOLAR

Über Astrid

Beschreibung wird geladen...

Live-Position

3D-Globus wird geladen...

Nächste Überflüge

Höhenverlauf

Altitude vs Time

uPlot chart will show altitude changes over time

Zweizeiliger Elementsatz

1 23464U 95002B 26073.29684049 .00000138 00000-0 13174-3 0 9996
2 23464 82.9228 88.8602 0042136 53.8776 306.6267 13.73065036559010
Epoch: 14. März 2026 • Age: 6 hours

Aktueller Status

Höhe 992.2 km
Geschwindigkeit 7.36 km/s
Subsatellitenpunkt 40.08°N, 105.12°W
Startdatum 24. Jan. 1995
Alter 31.1 years
Typ other

Technische Details

Klassifizierung Payload
Masse 26.00 kg
Trockenmasse 26.00 kg
Gesamtmasse 26.00 kg
Länge 0.40 m
Durchmesser 0.40 m
Spannweite 1.20 m
Form Cube + 4 Pan
Hersteller SSC
Bus-Typ Astrid
Phasenstatus In Orbit
Besitzer/Staat SSC/S

Große Konstellationen

Loading constellations...